Regional Weather Roundup
Issued by NWS Nashville, TN

Home | Current Version | Previous Version | Text Only | Print | Product List | Glossary On
Versions: 1 2 3 4 5 6 7 8 9 10 11 12 13 14 15 16 17 18 19 20 21 22 23 24 25 26 27 28 29 30 31 32 33 34 35 36 37 38 39 40 41 42 43 44 45 46 47 48 49 50
202
ASUS44 KOHX 252210
RWROHX
MIDDLE TENNESSEE HOURLY WEATHER ROUNDUP
NATIONAL WEATHER SERVICE NASHVILLE TN
500 PM CDT SAT MAR 25 2017

NOTE: "FAIR" INDICATES FEW OR NO CLOUDS BELOW 12,000 FEET WITH
NO SIGNIFICANT WEATHER AND/OR OBSTRUCTIONS TO VISIBILITY.

* THESE REPORTS ARE NOT UNDER NWS QUALITY CONTROL AND MAY NOT
  REPORT WEATHER SUCH AS PRECIPITATION AND FOG.


TNZ005>011-023>034-057-059-062>066-078-080-252300
...NORTHERN MIDDLE TENNESSEE...

CITY           SKY/WX    TMP DP  RH WIND       PRES   REMARKS
CLARKSVILLE    CLOUDY    68  56  65 S7        29.94F
CROSSVILLE     CLOUDY    70  48  45 SE10G21   30.07F
GALLATIN       CLOUDY    68  57  68 S13G18    30.03S
NASHVILLE      CLOUDY    68  59  73 SE14      29.99F
PORTLAND       PTSUNNY   68  57  68 S12       29.99F
SMYRNA         CLOUDY    65  61  87 SE12      30.02F
SPARTA         MOSUNNY   73  50  43 S12G17    30.00F
SPRINGFIELD    PTSUNNY   66  59  77 SE8       29.96F
WEST NASHVILLE MOSUNNY   66  57  72 S8        29.97F
$$
TNZ056-058-060-061-075>077-079-093>097-252300
...SOUTHERN MIDDLE TENNESSEE...

CITY           SKY/WX    TMP DP  RH WIND       PRES   REMARKS
COLUMBIA       MOSUNNY   66  57  72 S10       29.97F
FAYETTEVILLE   SUNNY     61  59  94 S7        30.04S
MCMINNVILLE    CLOUDY    63  57  82 W16       30.06R
SHELBYVILLE    PTSUNNY  N/A N/A N/A MISG      30.04F
TULLAHOMA      PTSUNNY   59  57  94 S8        30.07F
WINCHESTER     CLOUDY    59  57  94 W7        30.06S
$$


...KEY TO REMARKS...
VSB - VISIBILITY IN MILES
WCI - WIND CHILL INDEX
HX  - HEAT INDEX





USA.gov is the U.S. government's official web portal to all federal, state and local government web resources and services.